Total_Precipitation_Accumulation
0.73 0.59 0.65 0.68 0.58 0.69 1.10 1.16 1.16 0.78 0.65 0.72 0.72 0.71 0.67 0.65 0.67 0.70 0.76 0.78 0.80 0.83 0.86 0.88 0.85 0.86 0.95 1.06 1.16 1.24 1.40 1.56 1.61 1.66 1.72 1.73 1.64 1.57 1.56 1.59 1.69 1.72 1.74 1.82
0.75 0.50 0.49 0.53 0.46 0.53 0.68 0.73 0.81 0.65 0.67 0.61 0.60 0.58 0.58 0.61 0.62 0.65 0.73 0.76 0.75 0.76 0.83 0.84 0.82 0.83 0.85 0.91 1.03 1.06 1.18 1.34 1.45 1.55 1.67 1.83 1.85 1.77 1.69 1.61 1.62 1.70 1.72 1.77
0.80 0.45 0.61 0.75 0.65 0.64 0.68 0.70 0.77 0.84 0.75 0.56 0.57 0.61 0.71 0.71 0.66 0.65 0.69 0.75 0.72 0.73 0.79 0.78 0.77 0.81 0.84 0.84 0.93 1.01 1.02 1.08 1.22 1.40 1.50 1.63 1.83 1.92 1.84 1.77 1.78 1.80 1.83 1.88
0.98 0.71 0.92 0.70 0.47 0.50 0.59 0.67 0.71 0.71 0.60 0.52 0.57 0.63 0.67 0.69 0.71 0.66 0.64 0.67 0.69 0.72 0.76 0.72 0.71 0.75 0.76 0.76 0.83 0.96 1.02 1.06 1.18 1.29 1.40 1.56 1.75 1.89 1.96 1.94 1.99 1.98 1.95 1.96
1.20 0.94 0.60 0.37 0.31 0.49 0.63 0.67 0.55 0.52 0.47 0.41 0.39 0.44 0.52 0.58 0.62 0.68 0.67 0.65 0.67 0.71 0.75 0.69 0.70 0.77 0.76 0.74 0.81 0.90 0.99 1.05 1.11 1.22 1.32 1.46 1.64 1.79 1.90 1.95 2.01 2.04 1.93 1.84
1.36 1.11 0.69 0.45 0.26 0.31 0.54 0.79 0.43 0.40 0.43 0.41 0.38 0.54 0.60 0.58 0.61 0.59 0.61 0.64 0.66 0.68 0.67 0.66 0.73 0.78 0.79 0.81 0.84 0.94 0.99 1.03 1.06 1.15 1.25 1.34 1.48 1.63 1.78 1.87 1.89 1.85 1.78 1.68
1.18 1.09 0.61 0.41 0.25 0.25 0.73 0.96 0.46 0.42 0.46 0.47 0.54 0.64 0.62 0.55 0.53 0.52 0.54 0.59 0.67 0.71 0.74 0.75 0.81 0.84 0.85 0.85 0.89 0.93 0.97 1.02 1.05 1.10 1.20 1.28 1.30 1.37 1.48 1.56 1.59 1.57 1.49 1.48
0.88 1.10 0.75 0.42 0.36 0.66 0.86 0.56 0.46 0.44 0.48 0.55 0.56 0.50 0.50 0.52 0.52 0.49 0.52 0.57 0.65 0.73 0.77 0.78 0.80 0.83 0.83 0.87 0.93 0.93 0.95 1.00 1.05 1.09 1.11 1.15 1.17 1.18 1.21 1.25 1.32 1.37 1.31 1.29
0.80 0.89 0.77 0.63 0.74 0.79 0.69 0.60 0.52 0.51 0.50 0.54 0.59 0.59 0.57 0.59 0.59 0.56 0.56 0.60 0.62 0.66 0.70 0.73 0.80 0.86 0.88 0.90 0.91 0.93 0.95 0.97 1.00 1.00 1.02 1.07 1.12 1.13 1.16 1.19 1.23 1.31 1.25 1.21
0.67 0.65 0.58 0.54 0.54 0.52 0.53 0.57 0.55 0.54 0.54 0.53 0.57 0.60 0.60 0.62 0.64 0.64 0.63 0.61 0.60 0.59 0.62 0.69 0.75 0.81 0.84 0.81 0.81 0.84 0.91 0.93 0.94 0.92 0.94 0.98 1.05 1.11 1.18 1.24 1.23 1.23 1.19 1.15
0.59 0.52 0.42 0.39 0.40 0.42 0.40 0.38 0.40 0.41 0.44 0.49 0.50 0.55 0.58 0.61 0.61 0.63 0.63 0.62 0.59 0.58 0.60 0.65 0.68 0.73 0.79 0.80 0.75 0.76 0.81 0.83 0.85 0.87 0.90 0.98 1.03 1.12 1.21 1.26 1.33 1.34 1.22 1.14
0.67 0.51 0.50 0.47 0.42 0.38 0.35 0.36 0.37 0.38 0.39 0.42 0.45 0.52 0.52 0.54 0.56 0.57 0.59 0.59 0.56 0.54 0.57 0.59 0.60 0.65 0.70 0.74 0.76 0.77 0.78 0.79 0.82 0.83 0.88 0.95 1.02 1.09 1.22 1.28 1.30 1.31 1.30 1.21
0.55 0.45 0.41 0.39 0.36 0.34 0.35 0.37 0.36 0.36 0.39 0.40 0.39 0.39 0.42 0.46 0.48 0.47 0.47 0.50 0.54 0.56 0.57 0.56 0.55 0.59 0.64 0.65 0.67 0.72 0.77 0.80 0.82 0.83 0.88 0.93 0.95 0.99 1.08 1.14 1.15 1.18 1.22 1.21
0.35 0.32 0.32 0.30 0.33 0.31 0.30 0.31 0.29 0.30 0.32 0.35 0.37 0.36 0.34 0.34 0.36 0.38 0.44 0.50 0.51 0.51 0.52 0.52 0.50 0.51 0.54 0.55 0.59 0.64 0.70 0.77 0.77 0.81 0.87 0.89 0.93 0.95 0.95 0.97 1.00 1.04 1.09 1.14
0.26 0.28 0.33 0.28 0.24 0.23 0.23 0.22 0.22 0.25 0.27 0.31 0.33 0.35 0.34 0.34 0.38 0.45 0.46 0.45 0.43 0.42 0.44 0.43 0.44 0.49 0.52 0.52 0.55 0.58 0.63 0.68 0.70 0.74 0.79 0.84 0.86 0.91 0.92 0.90 0.91 0.91 0.91 1.00
0.28 0.24 0.23 0.21 0.21 0.21 0.22 0.22 0.23 0.27 0.29 0.30 0.32 0.34 0.36 0.36 0.39 0.42 0.43 0.42 0.42 0.44 0.45 0.42 0.45 0.49 0.50 0.53 0.54 0.57 0.62 0.68 0.67 0.68 0.72 0.76 0.80 0.83 0.86 0.85 0.84 0.83 0.86 0.93
0.32 0.30 0.29 0.28 0.26 0.25 0.27 0.29 0.31 0.31 0.31 0.31 0.33 0.35 0.35 0.34 0.36 0.38 0.41 0.42 0.43 0.45 0.45 0.45 0.48 0.47 0.47 0.49 0.52 0.56 0.60 0.63 0.65 0.63 0.67 0.73 0.77 0.81 0.84 0.85 0.84 0.80 0.83 0.94
0.38 0.39 0.40 0.39 0.37 0.33 0.31 0.32 0.33 0.33 0.33 0.34 0.32 0.32 0.34 0.36 0.40 0.42 0.44 0.42 0.40 0.40 0.41 0.44 0.46 0.44 0.43 0.46 0.50 0.52 0.55 0.56 0.56 0.58 0.62 0.68 0.74 0.78 0.81 0.83 0.82 0.80 0.79 0.87
0.35 0.38 0.38 0.38 0.38 0.36 0.35 0.34 0.35 0.34 0.34 0.34 0.35 0.35 0.36 0.37 0.39 0.42 0.43 0.40 0.39 0.41 0.43 0.42 0.45 0.41 0.40 0.46 0.51 0.50 0.51 0.52 0.53 0.55 0.59 0.66 0.70 0.69 0.72 0.76 0.78 0.77 0.76 0.77
0.35 0.36 0.36 0.36 0.35 0.34 0.34 0.33 0.31 0.30 0.32 0.33 0.34 0.34 0.35 0.37 0.38 0.40 0.39 0.39 0.43 0.47 0.45 0.43 0.41 0.37 0.38 0.44 0.52 0.49 0.49 0.51 0.53 0.55 0.57 0.60 0.62 0.64 0.67 0.70 0.72 0.71 0.70 0.69
0.33 0.33 0.33 0.33 0.33 0.32 0.33 0.34 0.32 0.31 0.30 0.30 0.33 0.36 0.36 0.37 0.38 0.38 0.38 0.38 0.38 0.38 0.37 0.40 0.38 0.36 0.40 0.47 0.52 0.49 0.49 0.51 0.53 0.55 0.56 0.57 0.59 0.61 0.62 0.64 0.66 0.66 0.66 0.66
0.31 0.31 0.31 0.31 0.30 0.31 0.30 0.29 0.30 0.31 0.30 0.30 0.31 0.33 0.33 0.33 0.34 0.34 0.35 0.38 0.38 0.39 0.37 0.34 0.35 0.42 0.51 0.55 0.49 0.45 0.47 0.49 0.51 0.53 0.54 0.54 0.56 0.58 0.59 0.61 0.63 0.64 0.64 0.65
0.30 0.29 0.29 0.28 0.28 0.29 0.27 0.26 0.27 0.30 0.32 0.32 0.32 0.33 0.34 0.35 0.35 0.36 0.36 0.34 0.34 0.37 0.36 0.36 0.42 0.49 0.53 0.49 0.42 0.41 0.44 0.46 0.48 0.49 0.50 0.51 0.54 0.57 0.59 0.60 0.60 0.60 0.62 0.62
0.27 0.26 0.27 0.27 0.26 0.24 0.25 0.26 0.27 0.28 0.30 0.30 0.31 0.32 0.34 0.35 0.33 0.33 0.36 0.36 0.37 0.38 0.36 0.38 0.43 0.46 0.45 0.39 0.36 0.37 0.39 0.42 0.45 0.47 0.48 0.50 0.52 0.54 0.55 0.55 0.55 0.53 0.53 0.55
0.24 0.24 0.24 0.24 0.23 0.23 0.25 0.25 0.24 0.24 0.25 0.26 0.26 0.27 0.29 0.33 0.36 0.34 0.31 0.32 0.34 0.35 0.33 0.34 0.37 0.38 0.36 0.33 0.32 0.34 0.36 0.39 0.44 0.48 0.49 0.49 0.50 0.51 0.51 0.50 0.50 0.49 0.48 0.47
0.20 0.21 0.21 0.23 0.26 0.26 0.26 0.27 0.29 0.26 0.26 0.26 0.25 0.24 0.24 0.25 0.26 0.28 0.29 0.31 0.33 0.34 0.32 0.31 0.32 0.33 0.33 0.33 0.33 0.34 0.35 0.37 0.39 0.40 0.42 0.44 0.46 0.48 0.48 0.47 0.45 0.46 0.45 0.44
0.16 0.16 0.16 0.17 0.19 0.21 0.23 0.26 0.29 0.30 0.30 0.31 0.30 0.25 0.24 0.25 0.26 0.28 0.29 0.29 0.31 0.31 0.31 0.31 0.32 0.34 0.34 0.35 0.35 0.35 0.36 0.36 0.37 0.38 0.39 0.42 0.44 0.46 0.46 0.46 0.46 0.46 0.46 0.45